This demonstration page uses our WeatherBlox Daily Observations layout. Learn more.

Left ArrowRight Arrow

39.12711, -84.51439

Hourly Observations for June 6, 2021

Temp ( °F °C ) Dew Point ( °F °C ) Humidity (%) Winds ( mph kmh ) Pressure ( in mb ) Visibility ( mi km ) Precip ( " mm )
12:53 am 00:53 Clear 65 18.3 62 16.7 90 90 N N/A 30.03 1017 10 16 N/A
1:53 am 01:53 Clear 63 17.2 61 16.1 93 93 N N/A 30.02 1017 8 13 N/A
2:53 am 02:53 Clear 62 16.7 60 15.6 93 93 N N/A 30.01 1016 7 11 N/A
3:33 am 03:33 Clear with Mist and Fog 61 16.1 60 15.6 97 97 N N/A 30.02 1016 2 3 N/A
3:47 am 03:47 Clear with Mist and Fog 61 16 61 16 100 100 N N/A 30.03 1017 3 5 N/A
3:53 am 03:53 Clear with Mist and Fog 61 16.1 60 15.6 97 97 N N/A 30.01 1016 6 10 N/A
4:18 am 04:18 Clear with Mist and Fog 60 15.6 59 15 96 96 N N/A 30.03 1017 2 2 N/A
4:28 am 04:28 Clear with Mist and Fog 61 16.1 59 15 93 93 N N/A 30.02 1016 1 1 N/A
4:34 am 04:34 Clear with Mist and Fog 61 16.1 59 15 93 93 N N/A 30.03 1017 2 3 N/A
4:46 am 04:46 Clear with Mist and Fog 60 15.6 59 15 96 96 N N/A 30.03 1017 1 1 N/A
4:53 am 04:53 Clear with Mist and Fog 61 16.1 59 15 93 93 N N/A 30.02 1017 1 2 N/A
4:55 am 04:55 Clear with Mist and Fog 61 16.1 59 15 93 93 N N/A 30.03 1017 3 5 N/A
5:11 am 05:11 Clear with Mist and Fog 60 15.6 59 15 96 96 N N/A 30.03 1017 2 3 N/A
5:24 am 05:24 Clear with Mist and Fog 60 15.6 59 15 96 96 N N/A 30.04 1017 3 5 N/A
5:36 am 05:36 Clear with Mist and Fog 61 16.1 59 15 93 93 N N/A 30.04 1017 2 3 N/A
5:47 am 05:47 Clear with Mist and Fog 61 16 59 15 94 94 N N/A 30.04 1017 3 5 N/A
5:53 am 05:53 Clear with Mist and Fog 60 15.6 59 15 96 96 N N/A 30.04 1017 2 2 N/A
6:07 am 06:07 Clear with Mist and Fog 60 15.6 59 15 96 96 N N/A 30.05 1017 3 5 N/A
6:20 am 06:20 Sunny with Mist and Fog 60 15.6 59 15 96 96 N N/A 30.05 1017 1 2 N/A
6:31 am 06:31 Sunny with Mist and Fog 61 16.1 59 15 93 93 N N/A 30.05 1017 3 5 N/A
6:53 am 06:53 Sunny with Mist and Fog 60 15.6 59 15 96 96 N N/A 30.05 1018 4 6 N/A
7:53 am 07:53 Cloudy with Mist and Fog 65 18.3 62 16.7 90 90 N N/A 30.06 1018 5 8 N/A
8:53 am 08:53 Mostly Cloudy 67 19.4 64 17.8 91 91 N N/A 30.07 1018 8 13 N/A
9:53 am 09:53 Partly Cloudy 71 21.7 65 18.3 81 81 N N/A 30.08 1019 10 16 N/A
10:53 am 10:53 Cloudy 75 23.9 66 18.9 74 74 S 6 9 30.08 1019 10 16 N/A
11:53 am 11:53 Cloudy with Light Rain 75 23.9 67 19.4 76 76 S 5 7 30.08 1019 10 16 0.00 0.00
12:53 pm 12:53 Mostly Cloudy 79 26.1 68 20 69 69 SSW 5 7 30.07 1018 10 16 0.00 0.00
1:53 pm 13:53 Partly Cloudy 81 27.2 68 20 65 65 S 9 15 30.05 1018 10 16 N/A
2:53 pm 14:53 Partly Cloudy 83 28.3 68 20 61 61 SSE 13 20 30.03 1017 10 16 N/A
3:53 pm 15:53 Mostly Sunny 84 28.9 68 20 59 59 S 10 17 30.01 1016 10 16 N/A
4:53 pm 16:53 Mostly Sunny 83 28.3 67 19.4 59 59 SSE 9 15 30.00 1016 10 16 N/A
5:53 pm 17:53 Sunny 82 27.8 66 18.9 58 58 S 10 17 29.99 1016 10 16 N/A
6:53 pm 18:53 Mostly Sunny 81 27.2 68 20 65 65 S 8 13 29.98 1015 10 16 N/A
7:30 pm 19:30 Mostly Cloudy with Light Rain 73 22.8 68 20 84 84 SW 24 39 30.01 1016 1 2 0.11 2.79
7:47 pm 19:47 Mostly Cloudy with Rain 72 22 70 21 94 94 N N/A 30.00 1016 6 10 0.31 7.87
7:53 pm 19:53 Mostly Cloudy with Light Rain 72 22.2 69 20.6 91 91 N N/A 30.01 1016 6 10 0.31 7.87
8:53 pm 20:53 Mostly Sunny 72 22.2 69 20.6 91 91 S 3 6 30.01 1016 10 16 0.00 0.00
9:53 pm 21:53 Partly Cloudy 70 21.1 68 20 93 93 S 6 9 30.03 1017 10 16 0.00 0.00
10:53 pm 22:53 Clear 69 20.6 66 18.9 90 90 S 3 6 30.04 1017 10 16 N/A
11:53 pm 23:53 Clear 70 21.1 66 18.9 87 87 N N/A 30.04 1017 10 16 N/A

Powered by AerisWeather